Total_Precipitation_Accumulation
0.00 0.00 0.00 0.00 0.00 0.00 0.00 0.00 0.00 0.00 0.00 0.00 0.00 0.01 0.03 0.03 0.05 0.06 0.10 0.21 0.50 0.95 1.21 1.35 1.52 1.63 1.81 2.01 2.24 2.45 2.67 2.79 2.67 2.71 2.78 2.75 2.48 2.37 2.15 1.92 1.71 1.63 1.59 1.72
0.00 0.01 0.00 0.00 0.00 0.00 0.00 0.00 0.00 0.01 0.00 0.00 0.00 0.02 0.05 0.05 0.05 0.06 0.10 0.23 0.42 0.72 1.09 1.23 1.31 1.47 1.61 1.84 2.28 2.67 2.63 2.56 2.49 2.69 2.95 3.13 3.12 2.76 2.24 2.01 1.89 1.66 1.58 1.68
0.01 0.02 0.01 0.00 0.00 0.00 0.00 0.00 0.01 0.01 0.00 0.00 0.01 0.06 0.10 0.12 0.13 0.15 0.22 0.33 0.51 0.70 0.86 0.99 1.02 1.10 1.26 1.54 1.87 1.99 1.78 1.81 1.79 1.88 2.13 2.28 2.55 2.46 2.18 1.92 1.80 1.68 1.62 1.61
0.01 0.01 0.00 0.00 0.00 0.00 0.01 0.01 0.01 0.00 0.00 0.01 0.02 0.10 0.21 0.30 0.34 0.35 0.39 0.48 0.70 0.85 0.87 0.92 0.98 1.07 1.10 1.06 1.04 1.06 1.12 1.22 1.30 1.43 1.69 1.96 2.23 2.21 2.12 2.05 1.81 1.61 1.46 1.40
0.01 0.00 0.00 0.00 0.01 0.01 0.01 0.01 0.00 0.00 0.01 0.01 0.03 0.08 0.27 0.46 0.61 0.50 0.44 0.57 0.79 0.80 0.77 0.80 0.87 0.92 0.90 0.89 0.91 0.91 1.01 1.15 1.27 1.38 1.53 1.73 2.08 2.06 1.88 1.75 1.60 1.52 1.43 1.35
0.02 0.01 0.01 0.00 0.01 0.01 0.00 0.00 0.00 0.01 0.05 0.12 0.15 0.15 0.31 0.47 0.46 0.42 0.43 0.59 0.66 0.64 0.68 0.74 0.74 0.75 0.75 0.77 0.86 0.92 0.94 1.02 1.08 1.15 1.25 1.31 1.47 1.53 1.44 1.37 1.33 1.26 1.18 1.16
0.06 0.06 0.04 0.02 0.01 0.02 0.01 0.02 0.13 0.26 0.34 0.36 0.27 0.27 0.43 0.39 0.39 0.50 0.56 0.64 0.69 0.66 0.60 0.62 0.67 0.69 0.72 0.73 0.76 0.81 0.84 0.88 0.86 0.83 0.81 0.82 0.92 1.05 1.09 1.09 1.09 1.07 0.97 0.91
0.13 0.16 0.09 0.04 0.03 0.05 0.06 0.10 0.28 0.31 0.25 0.23 0.22 0.38 0.54 0.50 0.54 0.56 0.51 0.50 0.49 0.47 0.44 0.44 0.48 0.53 0.57 0.61 0.64 0.65 0.67 0.71 0.73 0.73 0.74 0.70 0.74 0.83 0.91 1.00 0.96 0.93 0.83 0.73
0.06 0.07 0.04 0.03 0.03 0.06 0.15 0.18 0.18 0.30 0.28 0.24 0.25 0.43 0.54 0.52 0.58 0.55 0.53 0.51 0.48 0.44 0.40 0.37 0.38 0.41 0.40 0.41 0.43 0.47 0.52 0.61 0.65 0.68 0.69 0.63 0.66 0.78 0.85 0.91 0.93 0.97 0.96 0.87
0.02 0.01 0.02 0.02 0.04 0.08 0.11 0.12 0.18 0.29 0.31 0.27 0.22 0.49 0.80 0.85 0.81 0.70 0.71 0.67 0.57 0.44 0.36 0.31 0.27 0.25 0.25 0.28 0.34 0.45 0.58 0.63 0.57 0.54 0.52 0.48 0.57 0.75 0.79 0.75 0.77 0.88 0.94 0.93
0.01 0.01 0.03 0.05 0.05 0.07 0.11 0.14 0.21 0.27 0.26 0.31 0.34 0.49 0.48 0.64 0.75 0.75 0.70 0.63 0.52 0.40 0.33 0.28 0.23 0.19 0.19 0.22 0.28 0.39 0.47 0.53 0.51 0.46 0.42 0.39 0.43 0.50 0.58 0.62 0.64 0.71 0.78 0.83
0.01 0.01 0.04 0.07 0.06 0.06 0.09 0.13 0.22 0.35 0.36 0.40 0.46 0.52 0.33 0.39 0.47 0.46 0.42 0.36 0.31 0.27 0.23 0.20 0.19 0.19 0.20 0.23 0.28 0.33 0.36 0.38 0.41 0.39 0.38 0.38 0.39 0.38 0.37 0.41 0.46 0.51 0.56 0.61
0.01 0.04 0.08 0.20 0.25 0.15 0.15 0.12 0.16 0.21 0.28 0.32 0.41 0.47 0.34 0.36 0.40 0.44 0.45 0.41 0.32 0.25 0.22 0.21 0.20 0.20 0.22 0.27 0.31 0.34 0.39 0.39 0.41 0.39 0.38 0.41 0.40 0.38 0.33 0.32 0.34 0.37 0.37 0.37
0.01 0.02 0.04 0.09 0.09 0.07 0.11 0.14 0.17 0.22 0.31 0.30 0.29 0.37 0.44 0.47 0.48 0.44 0.42 0.40 0.35 0.25 0.18 0.19 0.21 0.22 0.24 0.27 0.28 0.28 0.33 0.39 0.44 0.48 0.55 0.55 0.50 0.45 0.38 0.31 0.30 0.29 0.28 0.29
0.00 0.00 0.01 0.01 0.02 0.06 0.09 0.10 0.15 0.18 0.22 0.34 0.27 0.28 0.37 0.40 0.43 0.41 0.34 0.29 0.25 0.21 0.19 0.19 0.22 0.25 0.25 0.25 0.26 0.26 0.29 0.33 0.37 0.43 0.53 0.58 0.53 0.47 0.42 0.34 0.28 0.27 0.26 0.24
0.01 0.01 0.01 0.03 0.08 0.11 0.11 0.12 0.12 0.12 0.12 0.17 0.20 0.25 0.22 0.22 0.27 0.30 0.28 0.26 0.24 0.23 0.20 0.17 0.17 0.17 0.20 0.21 0.20 0.21 0.23 0.25 0.27 0.31 0.38 0.45 0.47 0.44 0.39 0.32 0.27 0.25 0.23 0.24
0.02 0.02 0.02 0.03 0.07 0.11 0.18 0.14 0.11 0.09 0.07 0.13 0.26 0.30 0.21 0.22 0.26 0.27 0.22 0.19 0.18 0.15 0.12 0.10 0.12 0.12 0.11 0.10 0.12 0.17 0.19 0.21 0.28 0.31 0.33 0.40 0.47 0.46 0.37 0.27 0.25 0.26 0.27 0.30
0.04 0.03 0.04 0.07 0.09 0.19 0.17 0.04 0.03 0.06 0.05 0.05 0.14 0.16 0.15 0.16 0.15 0.12 0.10 0.09 0.08 0.06 0.05 0.04 0.04 0.05 0.05 0.05 0.09 0.14 0.18 0.25 0.31 0.35 0.39 0.44 0.47 0.47 0.43 0.37 0.35 0.38 0.41 0.42
0.02 0.02 0.02 0.05 0.08 0.11 0.05 0.03 0.04 0.07 0.08 0.03 0.06 0.08 0.07 0.05 0.07 0.08 0.04 0.02 0.01 0.01 0.01 0.01 0.02 0.03 0.04 0.07 0.12 0.19 0.28 0.36 0.39 0.41 0.43 0.46 0.52 0.58 0.59 0.53 0.48 0.48 0.50 0.47
0.01 0.01 0.01 0.02 0.05 0.10 0.06 0.04 0.04 0.06 0.14 0.07 0.04 0.04 0.03 0.03 0.10 0.13 0.04 0.00 0.00 0.00 0.01 0.01 0.03 0.05 0.08 0.12 0.16 0.24 0.35 0.43 0.47 0.47 0.45 0.47 0.53 0.60 0.67 0.68 0.61 0.57 0.58 0.52
0.01 0.01 0.01 0.02 0.04 0.04 0.02 0.03 0.04 0.12 0.19 0.03 0.01 0.01 0.01 0.03 0.07 0.06 0.02 0.00 0.00 0.01 0.01 0.02 0.06 0.09 0.11 0.12 0.18 0.28 0.39 0.46 0.45 0.44 0.47 0.54 0.60 0.66 0.71 0.77 0.77 0.73 0.67 0.62
0.01 0.01 0.01 0.03 0.07 0.08 0.01 0.00 0.02 0.04 0.03 0.01 0.01 0.01 0.01 0.01 0.01 0.00 0.00 0.01 0.01 0.01 0.02 0.04 0.09 0.13 0.13 0.14 0.22 0.32 0.38 0.41 0.45 0.48 0.54 0.59 0.67 0.65 0.70 0.91 0.95 0.97 0.92 0.78
0.00 0.01 0.01 0.02 0.04 0.02 0.01 0.00 0.01 0.01 0.01 0.01 0.01 0.01 0.01 0.01 0.01 0.01 0.01 0.01 0.01 0.01 0.03 0.06 0.11 0.14 0.18 0.25 0.32 0.39 0.38 0.41 0.50 0.58 0.64 0.63 0.64 0.72 0.82 0.92 0.95 0.95 0.92 0.86
0.00 0.00 0.01 0.03 0.02 0.01 0.01 0.01 0.01 0.00 0.00 0.00 0.00 0.01 0.01 0.01 0.01 0.01 0.01 0.02 0.02 0.03 0.06 0.10 0.16 0.25 0.33 0.40 0.44 0.44 0.44 0.52 0.63 0.71 0.76 0.77 0.77 0.75 0.79 0.92 0.94 0.91 0.85 0.83
0.00 0.00 0.02 0.04 0.02 0.01 0.01 0.01 0.00 0.00 0.00 0.00 0.00 0.01 0.01 0.02 0.02 0.02 0.02 0.03 0.04 0.05 0.08 0.13 0.22 0.32 0.36 0.43 0.53 0.55 0.62 0.74 0.82 0.80 0.77 0.79 0.83 0.91 0.93 0.92 0.93 0.91 0.88 0.77
0.01 0.02 0.03 0.04 0.04 0.04 0.03 0.01 0.00 0.00 0.00 0.01 0.01 0.01 0.02 0.03 0.03 0.02 0.02 0.03 0.04 0.07 0.11 0.17 0.25 0.33 0.38 0.48 0.56 0.61 0.71 0.84 0.95 0.94 0.85 0.85 0.87 0.90 0.94 0.94 0.85 0.73 0.65 0.55